Weather History for Quantico, VA

Change the Weather History Date:

Monday, April 15, 2013

  Actual Average Record
Temperature  
Mean Temperature 59 °F -  
Max Temperature 64 °F 64 °F 87 °F (2002)
Min Temperature 55 °F 44 °F 34 °F (1997)
Degree Days  
Heating Degree Days 6    
Growing Degree Days 9 (Base 50)    
Moisture  
Dew Point 47 °F    
Average Humidity 65    
Maximum Humidity 75    
Minimum Humidity 55    
Precipitation  
Precipitation 0.00 in - - ()
Sea Level Pressure  
Sea Level Pressure 30.24 in    
Wind  
Wind Speed 5 mph (SE)    
Max Wind Speed 14 mph    
Max Gust Speed -    
Visibility 10 miles    
Events Rain    
Averages and records for this station are not official NWS values.
T = Trace of Precipitation, MM = Missing Value Source: NWS Daily Summary

Daily Weather History Graph

Daily Weather History Graph

Search for Another Location

Airport:

Trip Planner

Search our weather history database for the weather conditions in past years. The results will help you decide how hot, cold, wet, or windy it might be!

Date:

Astronomy

Apr. 15, 2013 Rise Set
Actual Time 6:32 AM EDT 7:46 PM EDT
Civil Twilight 6:05 AM EDT 8:13 PM EDT
Nautical Twilight 5:32 AM EDT 8:46 PM EDT
Astronomical Twilight 4:58 AM EDT 9:20 PM EDT
Moon 9:59 AM EDT (4/15) No Moon Set
Length of Visible Light 14h 08m
Length of Day
13h 13m
Waxing Crescent, 24% of the Moon is Illuminated
Apr 15
Waxing Crescent
Apr 18
First Quarter
Apr 25
Full
May 2
Last Quarter
May 9
New

Hourly Weather History & Observations

Time (EDT) Temp. Dew Point Humidity Pressure Visibility Wind Dir Wind Speed Gust Speed Precip Events Conditions
12:56 AM 59.0 °F 45.0 °F 60% 30.14 in 10.0 mi East 3.5 mph - N/A   Clear
1:56 AM 59.0 °F 45.0 °F 60% 30.14 in 10.0 mi East 4.6 mph - N/A   Clear
2:56 AM 59.0 °F 43.0 °F 55% 30.17 in 10.0 mi Calm Calm - 0.00 in   Overcast
3:56 AM 57.9 °F 45.0 °F 62% 30.18 in 10.0 mi Calm Calm - 0.00 in   Overcast
4:56 AM 57.0 °F 45.0 °F 64% 30.19 in 10.0 mi SSE 6.9 mph - N/A   Mostly Cloudy
5:56 AM 57.0 °F 45.0 °F 64% 30.20 in 10.0 mi SSE 5.8 mph - N/A   Overcast
6:56 AM 57.0 °F 45.0 °F 64% 30.22 in 6.0 mi SSE 5.8 mph - 0.00 in Rain Light Rain
7:56 AM 55.9 °F 48.0 °F 75% 30.24 in 10.0 mi ESE 5.8 mph - 0.00 in   Overcast
8:56 AM 57.0 °F 46.0 °F 67% 30.24 in 6.0 mi Calm Calm - 0.00 in Rain Light Rain
9:56 AM 59.0 °F 48.0 °F 67% 30.23 in 10.0 mi ESE 4.6 mph - 0.00 in   Mostly Cloudy
10:56 AM 60.1 °F 46.9 °F 62% 30.24 in 10.0 mi Calm Calm - N/A   Overcast
11:56 AM 60.1 °F 48.9 °F 67% 30.25 in 10.0 mi SSW 5.8 mph - N/A   Overcast
12:56 PM 61.0 °F 50.0 °F 67% 30.25 in 10.0 mi Calm Calm - N/A   Overcast
1:56 PM 62.1 °F 50.0 °F 65% 30.24 in 10.0 mi East 3.5 mph - N/A   Overcast
2:56 PM 63.0 °F 48.9 °F 60% 30.24 in 10.0 mi SE 11.5 mph - N/A   Overcast
3:56 PM 62.1 °F 50.0 °F 65% 30.25 in 10.0 mi SE 11.5 mph - N/A   Overcast
4:56 PM 62.1 °F 50.0 °F 65% 30.23 in 10.0 mi SE 13.8 mph - N/A   Overcast
5:56 PM 61.0 °F 48.9 °F 64% 30.25 in 10.0 mi SSE 10.4 mph - N/A   Overcast
6:56 PM 61.0 °F 48.0 °F 62% 30.26 in 10.0 mi SSE 12.7 mph - N/A   Overcast
7:56 PM 60.1 °F 46.9 °F 62% 30.27 in 10.0 mi SSE 6.9 mph - N/A   Overcast
8:56 PM 60.1 °F 46.9 °F 62% 30.28 in 10.0 mi SSE 12.7 mph - N/A   Overcast
9:56 PM 59.0 °F 48.0 °F 67% 30.30 in 10.0 mi SSE 5.8 mph - N/A   Overcast
10:56 PM 57.0 °F 48.0 °F 72% 30.30 in 10.0 mi SSE 6.9 mph - N/A   Overcast
11:42 PM 57.2 °F 48.2 °F 72% 30.29 in 10.0 mi SSE 5.8 mph - N/A   Overcast
11:56 PM 57.9 °F 48.0 °F 70% 30.30 in 10.0 mi SSE 5.8 mph - N/A   Overcast